Time,TemperatureF,DewpointF,PressureIn,WindDirection,WindDirectionDegrees,WindSpeedMPH,WindSpeedGustMPH,Humidity,HourlyPrecipIn,Conditions,Clouds,dailyrainin,SoftwareType,DateUTC
2013-04-17 00:01:00,41.0,35.6,30.01,NE,45,4.0,13.0,81,0.00,,,-99.99,Weather View 32 v60,2013-04-17 04:01:00,
2013-04-17 00:06:00,41.0,35.6,30.01,NE,45,4.0,13.0,81,0.00,,,-99.99,Weather View 32 v60,2013-04-17 04:06:00,
2013-04-17 00:11:00,41.0,35.6,30.01,NE,45,3.0,13.0,81,0.00,,,-99.99,Weather View 32 v60,2013-04-17 04:11:00,
2013-04-17 00:16:00,41.0,35.9,30.01,NNE,22,1.0,13.0,82,0.00,,,-99.99,Weather View 32 v60,2013-04-17 04:16:00,
2013-04-17 00:21:00,41.0,35.6,30.02,NE,45,0.0,13.0,81,0.00,,,-99.99,Weather View 32 v60,2013-04-17 04:21:00,
2013-04-17 00:26:00,41.0,35.9,30.02,NE,45,3.0,13.0,82,0.00,,,-99.99,Weather View 32 v60,2013-04-17 04:26:00,
2013-04-17 00:31:00,41.0,35.6,30.03,NE,45,6.0,13.0,81,0.00,,,-99.99,Weather View 32 v60,2013-04-17 04:31:00,
2013-04-17 00:36:00,41.0,35.6,30.03,NNE,22,6.0,13.0,81,0.00,,,-99.99,Weather View 32 v60,2013-04-17 04:36:00,
2013-04-17 00:41:00,41.0,35.6,30.02,North,360,5.0,12.0,81,0.00,,,-99.99,Weather View 32 v60,2013-04-17 04:41:00,
2013-04-17 00:46:00,41.0,35.6,30.02,East,90,5.0,12.0,81,0.00,,,-99.99,Weather View 32 v60,2013-04-17 04:46:00,
2013-04-17 00:51:00,41.0,35.6,30.02,WNW,292,3.0,16.0,81,0.00,,,-99.99,Weather View 32 v60,2013-04-17 04:51:00,
2013-04-17 01:01:00,41.0,35.3,30.02,ENE,67,3.0,16.0,80,0.00,,,-99.99,Weather View 32 v60,2013-04-17 05:01:00,
2013-04-17 01:06:00,41.0,35.3,30.02,East,90,4.0,16.0,80,0.00,,,-99.99,Weather View 32 v60,2013-04-17 05:06:00,
2013-04-17 01:11:00,41.0,35.3,30.03,NE,45,5.0,16.0,80,0.00,,,-99.99,Weather View 32 v60,2013-04-17 05:11:00,
2013-04-17 01:16:00,41.0,35.3,30.03,NE,45,4.0,16.0,80,0.00,,,-99.99,Weather View 32 v60,2013-04-17 05:16:00,
2013-04-17 01:26:00,41.0,34.7,30.03,NNE,22,7.0,16.0,78,0.00,,,-99.99,Weather View 32 v60,2013-04-17 05:26:00,
2013-04-17 01:36:00,42.0,35.6,30.05,ESE,112,4.0,16.0,78,0.00,,,-99.99,Weather View 32 v60,2013-04-17 05:36:00,
2013-04-17 01:41:00,42.0,35.6,30.05,East,90,1.0,16.0,78,0.00,,,-99.99,Weather View 32 v60,2013-04-17 05:41:00,
2013-04-17 01:51:00,42.0,35.6,30.05,East,90,2.0,16.0,78,0.00,,,-99.99,Weather View 32 v60,2013-04-17 05:51:00,
2013-04-17 01:56:00,42.0,35.6,30.04,NNE,22,0.0,12.0,78,0.00,,,-99.99,Weather View 32 v60,2013-04-17 05:56:00,
2013-04-17 02:01:00,42.0,35.6,30.05,SE,135,3.0,12.0,78,0.00,,,-99.99,Weather View 32 v60,2013-04-17 06:01:00,
2013-04-17 02:06:00,42.0,35.3,30.05,ESE,112,5.0,12.0,77,0.00,,,-99.99,Weather View 32 v60,2013-04-17 06:06:00,
2013-04-17 02:11:00,42.0,35.3,30.05,SE,135,5.0,12.0,77,0.00,,,-99.99,Weather View 32 v60,2013-04-17 06:11:00,
2013-04-17 02:16:00,42.0,35.3,30.05,East,90,3.0,12.0,77,0.00,,,-99.99,Weather View 32 v60,2013-04-17 06:16:00,
2013-04-17 02:21:00,42.0,35.3,30.05,North,360,2.0,12.0,77,0.00,,,-99.99,Weather View 32 v60,2013-04-17 06:21:00,
2013-04-17 02:26:00,42.0,35.3,30.05,ENE,67,9.0,12.0,77,0.00,,,-99.99,Weather View 32 v60,2013-04-17 06:26:00,
2013-04-17 02:31:00,42.0,35.3,30.05,East,90,5.0,15.0,77,0.00,,,-99.99,Weather View 32 v60,2013-04-17 06:31:00,
2013-04-17 02:41:00,42.0,35.3,30.05,ENE,67,6.0,15.0,77,0.00,,,-99.99,Weather View 32 v60,2013-04-17 06:41:00,
2013-04-17 02:46:00,42.0,35.0,30.05,East,90,10.0,15.0,76,0.00,,,-99.99,Weather View 32 v60,2013-04-17 06:46:00,
2013-04-17 02:51:00,42.0,35.0,30.05,East,90,7.0,15.0,76,0.00,,,-99.99,Weather View 32 v60,2013-04-17 06:51:00,
2013-04-17 02:56:00,42.0,35.0,30.05,East,90,12.0,15.0,76,0.00,,,-99.99,Weather View 32 v60,2013-04-17 06:56:00,
2013-04-17 03:01:00,42.0,35.0,30.04,East,90,6.0,15.0,76,0.00,,,-99.99,Weather View 32 v60,2013-04-17 07:01:00,
2013-04-17 03:11:00,42.0,35.0,30.04,East,90,6.0,15.0,76,0.00,,,-99.99,Weather View 32 v60,2013-04-17 07:11:00,
2013-04-17 03:16:00,42.0,35.0,30.04,SSE,157,9.0,15.0,76,0.00,,,-99.99,Weather View 32 v60,2013-04-17 07:16:00,
2013-04-17 03:21:00,42.0,35.0,30.04,East,90,3.0,15.0,76,0.00,,,-99.99,Weather View 32 v60,2013-04-17 07:21:00,
2013-04-17 03:26:00,42.0,34.6,30.04,East,90,12.0,15.0,75,0.00,,,-99.99,Weather View 32 v60,2013-04-17 07:26:00,
2013-04-17 03:31:00,42.0,34.6,30.05,NE,45,4.0,15.0,75,0.00,,,-99.99,Weather View 32 v60,2013-04-17 07:31:00,
2013-04-17 03:36:00,42.0,34.6,30.05,ESE,112,10.0,15.0,75,0.00,,,-99.99,Weather View 32 v60,2013-04-17 07:36:00,
2013-04-17 03:41:00,42.0,34.6,30.06,ESE,112,3.0,15.0,75,0.00,,,-99.99,Weather View 32 v60,2013-04-17 07:41:00,
2013-04-17 03:46:00,42.0,34.6,30.06,ENE,67,4.0,15.0,75,0.00,,,-99.99,Weather View 32 v60,2013-04-17 07:46:00,
2013-04-17 03:52:00,42.0,34.6,30.06,East,90,7.0,15.0,75,0.00,,,-99.99,Weather View 32 v60,2013-04-17 07:52:00,
2013-04-17 04:01:00,42.0,34.6,30.05,East,90,2.0,15.0,75,0.00,,,-99.99,Weather View 32 v60,2013-04-17 08:01:00,
2013-04-17 04:06:00,42.0,34.6,30.05,ESE,112,5.0,15.0,75,0.00,,,-99.99,Weather View 32 v60,2013-04-17 08:06:00,
2013-04-17 04:11:00,42.0,34.0,30.05,East,90,9.0,17.0,73,0.00,,,-99.99,Weather View 32 v60,2013-04-17 08:11:00,
2013-04-17 04:21:00,42.0,34.3,30.06,East,90,9.0,17.0,74,0.00,,,-99.99,Weather View 32 v60,2013-04-17 08:21:00,
2013-04-17 04:26:00,42.0,33.6,30.06,East,90,8.0,17.0,72,0.00,,,-99.99,Weather View 32 v60,2013-04-17 08:26:00,
2013-04-17 04:31:00,42.0,33.6,30.05,ESE,112,12.0,19.0,72,0.00,,,-99.99,Weather View 32 v60,2013-04-17 08:31:00,
2013-04-17 04:41:00,42.0,34.0,30.05,South,180,4.0,19.0,73,0.00,,,-99.99,Weather View 32 v60,2013-04-17 08:41:00,
2013-04-17 04:51:00,42.0,33.6,30.05,ESE,112,4.0,19.0,72,0.00,,,-99.99,Weather View 32 v60,2013-04-17 08:51:00,
2013-04-17 05:01:00,42.0,33.3,30.05,SE,135,8.0,19.0,71,0.00,,,-99.99,Weather View 32 v60,2013-04-17 09:01:00,
2013-04-17 05:06:00,42.0,33.3,30.05,SE,135,7.0,19.0,71,0.00,,,-99.99,Weather View 32 v60,2013-04-17 09:06:00,
2013-04-17 05:11:00,43.0,34.9,30.05,East,90,12.0,19.0,73,0.00,,,-99.99,Weather View 32 v60,2013-04-17 09:11:00,
2013-04-17 05:16:00,43.0,34.6,30.05,NE,45,4.0,19.0,72,0.00,,,-99.99,Weather View 32 v60,2013-04-17 09:16:00,
2013-04-17 05:21:00,42.0,33.3,30.05,SE,135,8.0,19.0,71,0.00,,,-99.99,Weather View 32 v60,2013-04-17 09:21:00,
2013-04-17 05:26:00,43.0,34.2,30.05,East,90,11.0,23.0,71,0.00,,,-99.99,Weather View 32 v60,2013-04-17 09:26:00,
2013-04-17 05:31:00,43.0,34.2,30.05,SE,135,9.0,24.0,71,0.00,,,-99.99,Weather View 32 v60,2013-04-17 09:31:00,
2013-04-17 05:36:00,42.0,33.3,30.05,SE,135,8.0,24.0,71,0.00,,,-99.99,Weather View 32 v60,2013-04-17 09:36:00,
2013-04-17 05:41:00,42.0,33.3,30.05,SE,135,11.0,24.0,71,0.00,,,-99.99,Weather View 32 v60,2013-04-17 09:41:00,
2013-04-17 05:46:00,42.0,33.6,30.05,East,90,7.0,24.0,72,0.00,,,-99.99,Weather View 32 v60,2013-04-17 09:46:00,
2013-04-17 05:51:00,42.0,33.6,30.05,East,90,9.0,24.0,72,0.00,,,-99.99,Weather View 32 v60,2013-04-17 09:51:00,
2013-04-17 06:01:00,42.0,34.3,30.03,SE,135,7.0,24.0,74,0.00,,,-99.99,Weather View 32 v60,2013-04-17 10:01:00,
2013-04-17 06:06:00,42.0,34.6,30.03,SE,135,5.0,24.0,75,0.00,,,-99.99,Weather View 32 v60,2013-04-17 10:06:00,
2013-04-17 06:11:00,42.0,34.6,30.03,SE,135,9.0,24.0,75,0.00,,,-99.99,Weather View 32 v60,2013-04-17 10:11:00,
2013-04-17 06:16:00,42.0,35.0,30.03,SE,135,5.0,24.0,76,0.00,,,-99.99,Weather View 32 v60,2013-04-17 10:16:00,
2013-04-17 06:21:00,42.0,35.0,30.03,ESE,112,7.0,24.0,76,0.00,,,-99.99,Weather View 32 v60,2013-04-17 10:21:00,
2013-04-17 06:26:00,42.0,35.0,30.03,SE,135,10.0,24.0,76,0.00,,,-99.99,Weather View 32 v60,2013-04-17 10:26:00,
2013-04-17 06:31:00,42.0,35.3,30.03,SE,135,14.0,24.0,77,0.00,,,-99.99,Weather View 32 v60,2013-04-17 10:31:00,
2013-04-17 06:41:00,42.0,36.0,30.03,North,360,6.0,24.0,79,0.00,,,-99.99,Weather View 32 v60,2013-04-17 10:41:00,
2013-04-17 06:46:00,42.0,36.0,30.03,South,180,4.0,24.0,79,0.00,,,-99.99,Weather View 32 v60,2013-04-17 10:46:00,
2013-04-17 06:51:00,42.0,36.3,30.03,SE,135,9.0,25.0,80,0.00,,,-99.99,Weather View 32 v60,2013-04-17 10:51:00,
2013-04-17 07:01:00,41.0,35.3,30.03,SE,135,6.0,25.0,80,0.00,,,-99.99,Weather View 32 v60,2013-04-17 11:01:00,
2013-04-17 07:06:00,41.0,35.6,30.03,East,90,5.0,25.0,81,0.00,,,-99.99,Weather View 32 v60,2013-04-17 11:06:00,
2013-04-17 07:11:00,41.0,35.6,30.05,SE,135,11.0,25.0,81,0.00,,,-99.99,Weather View 32 v60,2013-04-17 11:11:00,
2013-04-17 07:21:00,41.0,35.6,30.04,SSE,157,6.0,25.0,81,0.00,,,-99.99,Weather View 32 v60,2013-04-17 11:21:00,
2013-04-17 07:26:00,41.0,35.6,30.04,ESE,112,10.0,25.0,81,0.00,,,-99.99,Weather View 32 v60,2013-04-17 11:26:00,
2013-04-17 07:31:00,41.0,35.6,30.05,ESE,112,7.0,25.0,81,0.00,,,-99.99,Weather View 32 v60,2013-04-17 11:31:00,
2013-04-17 07:36:00,41.0,35.6,30.05,SE,135,9.0,25.0,81,0.00,,,-99.99,Weather View 32 v60,2013-04-17 11:36:00,
2013-04-17 07:46:00,42.0,36.3,30.03,East,90,8.0,34.0,80,0.00,,,-99.99,Weather View 32 v60,2013-04-17 11:46:00,
2013-04-17 07:51:00,41.0,35.3,30.03,SE,135,8.0,34.0,80,0.00,,,-99.99,Weather View 32 v60,2013-04-17 11:51:00,
2013-04-17 07:56:00,41.0,35.3,30.03,SE,135,17.0,34.0,80,0.00,,,-99.99,Weather View 32 v60,2013-04-17 11:56:00,
2013-04-17 08:01:00,41.0,35.3,30.02,East,90,16.0,34.0,80,0.00,,,-99.99,Weather View 32 v60,2013-04-17 12:01:00,
2013-04-17 08:06:00,42.0,36.3,30.02,SSE,157,5.0,34.0,80,0.00,,,-99.99,Weather View 32 v60,2013-04-17 12:06:00,
2013-04-17 08:11:00,42.0,36.3,30.04,SE,135,6.0,34.0,80,0.00,,,-99.99,Weather View 32 v60,2013-04-17 12:11:00,
2013-04-17 08:16:00,42.0,36.3,30.04,ESE,112,3.0,34.0,80,0.00,,,-99.99,Weather View 32 v60,2013-04-17 12:16:00,
2013-04-17 08:26:00,42.0,36.0,30.03,SE,135,20.0,34.0,79,0.00,,,-99.99,Weather View 32 v60,2013-04-17 12:26:00,
2013-04-17 08:31:00,42.0,35.6,30.04,SE,135,17.0,34.0,78,0.00,,,-99.99,Weather View 32 v60,2013-04-17 12:31:00,
2013-04-17 08:36:00,42.0,36.0,30.04,East,90,14.0,34.0,79,0.00,,,-99.99,Weather View 32 v60,2013-04-17 12:36:00,
2013-04-17 08:41:00,42.0,35.6,30.04,SE,135,16.0,34.0,78,0.00,,,-99.99,Weather View 32 v60,2013-04-17 12:41:00,
2013-04-17 08:46:00,42.0,35.6,30.04,SE,135,6.0,27.0,78,0.00,,,-99.99,Weather View 32 v60,2013-04-17 12:46:00,
2013-04-17 08:51:00,42.0,36.0,30.04,SE,135,9.0,27.0,79,0.00,,,-99.99,Weather View 32 v60,2013-04-17 12:51:00,
2013-04-17 08:56:00,43.0,36.9,30.04,SSE,157,8.0,27.0,79,0.00,,,-99.99,Weather View 32 v60,2013-04-17 12:56:00,
2013-04-17 09:01:00,43.0,36.3,30.04,SE,135,13.0,27.0,77,0.00,,,-99.99,Weather View 32 v60,2013-04-17 13:01:00,
2013-04-17 09:06:00,43.0,35.9,30.04,SSE,157,9.0,27.0,76,0.00,,,-99.99,Weather View 32 v60,2013-04-17 13:06:00,
2013-04-17 09:11:00,43.0,35.9,30.03,SE,135,10.0,27.0,76,0.00,,,-99.99,Weather View 32 v60,2013-04-17 13:11:00,
2013-04-17 09:16:00,44.0,36.6,30.03,SE,135,12.0,27.0,75,0.00,,,-99.99,Weather View 32 v60,2013-04-17 13:16:00,
2013-04-17 09:21:00,44.0,36.9,30.03,SE,135,8.0,27.0,76,0.00,,,-99.99,Weather View 32 v60,2013-04-17 13:21:00,
2013-04-17 09:26:00,44.0,36.2,30.03,SE,135,16.0,27.0,74,0.00,,,-99.99,Weather View 32 v60,2013-04-17 13:26:00,
2013-04-17 09:31:00,44.0,36.9,30.02,SE,135,10.0,26.0,76,0.00,,,-99.99,Weather View 32 v60,2013-04-17 13:31:00,
2013-04-17 09:36:00,44.0,36.2,30.02,ESE,112,12.0,23.0,74,0.00,,,-99.99,Weather View 32 v60,2013-04-17 13:36:00,
2013-04-17 09:41:00,44.0,35.9,30.03,ESE,112,14.0,23.0,73,0.00,,,-99.99,Weather View 32 v60,2013-04-17 13:41:00,
2013-04-17 09:46:00,44.0,35.5,30.03,East,90,13.0,33.0,72,0.00,,,-99.99,Weather View 32 v60,2013-04-17 13:46:00,
2013-04-17 09:55:00,45.0,36.2,30.03,East,90,20.0,33.0,71,0.00,,,-99.99,Weather View 32 v60,2013-04-17 13:55:00,
2013-04-17 10:01:00,45.0,35.4,30.02,SE,135,7.0,33.0,69,0.00,,,-99.99,Weather View 32 v60,2013-04-17 14:01:00,
2013-04-17 10:06:00,45.0,35.1,30.02,SE,135,10.0,33.0,68,0.00,,,-99.99,Weather View 32 v60,2013-04-17 14:06:00,
2013-04-17 10:11:00,45.0,35.4,30.02,South,180,5.0,33.0,69,0.00,,,-99.99,Weather View 32 v60,2013-04-17 14:11:00,
2013-04-17 10:16:00,46.0,35.6,30.02,SE,135,12.0,33.0,67,0.00,,,-99.99,Weather View 32 v60,2013-04-17 14:16:00,
2013-04-17 10:21:00,45.0,34.3,30.02,ESE,112,8.0,33.0,66,0.00,,,-99.99,Weather View 32 v60,2013-04-17 14:21:00,
2013-04-17 10:26:00,46.0,35.6,30.02,SE,135,13.0,33.0,67,0.00,,,-99.99,Weather View 32 v60,2013-04-17 14:26:00,
2013-04-17 10:31:00,46.0,35.6,30.02,SE,135,18.0,33.0,67,0.00,,,-99.99,Weather View 32 v60,2013-04-17 14:31:00,
2013-04-17 10:36:00,47.0,36.2,30.02,SE,135,10.0,33.0,66,0.00,,,-99.99,Weather View 32 v60,2013-04-17 14:36:00,
2013-04-17 10:46:00,47.0,35.0,30.01,East,90,16.0,30.0,63,0.00,,,-99.99,Weather View 32 v60,2013-04-17 14:46:00,
2013-04-17 10:51:00,48.0,36.4,29.99,SE,135,12.0,30.0,64,0.00,,,-99.99,Weather View 32 v60,2013-04-17 14:51:00,
2013-04-17 10:56:00,48.0,36.0,29.99,SE,135,10.0,30.0,63,0.00,,,-99.99,Weather View 32 v60,2013-04-17 14:56:00,
2013-04-17 11:01:00,47.0,35.8,29.99,ESE,112,10.0,30.0,65,0.00,,,-99.99,Weather View 32 v60,2013-04-17 15:01:00,
2013-04-17 11:06:00,48.0,36.4,29.99,ESE,112,10.0,30.0,64,0.00,,,-99.99,Weather View 32 v60,2013-04-17 15:06:00,
2013-04-17 11:16:00,49.0,36.1,29.99,SE,135,12.0,35.0,61,0.00,,,-99.99,Weather View 32 v60,2013-04-17 15:16:00,
2013-04-17 11:21:00,48.0,35.6,30.01,East,90,8.0,35.0,62,0.00,,,-99.99,Weather View 32 v60,2013-04-17 15:21:00,
2013-04-17 11:26:00,48.0,35.6,30.01,SE,135,15.0,35.0,62,0.00,,,-99.99,Weather View 32 v60,2013-04-17 15:26:00,
2013-04-17 11:31:00,48.0,36.0,30.01,East,90,6.0,35.0,63,0.00,,,-99.99,Weather View 32 v60,2013-04-17 15:31:00,
2013-04-17 11:36:00,48.0,35.2,30.01,East,90,11.0,35.0,61,0.00,,,-99.99,Weather View 32 v60,2013-04-17 15:36:00,
2013-04-17 11:41:00,49.0,36.5,29.99,East,90,10.0,35.0,62,0.00,,,-99.99,Weather View 32 v60,2013-04-17 15:41:00,
2013-04-17 11:46:00,48.0,36.0,29.99,SE,135,7.0,35.0,63,0.00,,,-99.99,Weather View 32 v60,2013-04-17 15:46:00,
2013-04-17 12:01:00,48.0,36.4,30.00,SE,135,12.0,35.0,64,0.00,,,-99.99,Weather View 32 v60,2013-04-17 16:01:00,
2013-04-17 12:06:00,48.0,36.8,30.00,SE,135,10.0,35.0,65,0.00,,,-99.99,Weather View 32 v60,2013-04-17 16:06:00,
2013-04-17 12:11:00,48.0,37.2,30.02,SE,135,17.0,35.0,66,0.00,,,-99.99,Weather View 32 v60,2013-04-17 16:11:00,
2013-04-17 12:22:00,48.0,37.9,30.00,East,90,12.0,28.0,68,0.00,,,-99.99,Weather View 32 v60,2013-04-17 16:22:00,
2013-04-17 12:31:00,48.0,38.7,29.96,SE,135,10.0,28.0,70,0.00,,,-99.99,Weather View 32 v60,2013-04-17 16:31:00,
2013-04-17 12:41:00,47.0,39.5,29.90,SE,135,20.0,32.0,75,0.00,,,-99.99,Weather View 32 v60,2013-04-17 16:41:00,
2013-04-17 12:51:00,46.0,39.8,29.83,SE,135,19.0,36.0,79,0.01,,,-99.99,Weather View 32 v60,2013-04-17 16:51:00,
2013-04-17 12:57:00,47.0,40.2,29.83,ESE,112,22.0,37.0,77,0.01,,,-99.99,Weather View 32 v60,2013-04-17 16:57:00,
2013-04-17 13:06:00,47.0,40.2,29.86,ESE,112,5.0,37.0,77,0.01,,,-99.99,Weather View 32 v60,2013-04-17 17:06:00,
2013-04-17 13:11:00,48.0,40.4,29.94,SE,135,12.0,37.0,75,0.01,,,-99.99,Weather View 32 v60,2013-04-17 17:11:00,
2013-04-17 13:16:00,48.0,40.1,29.94,SE,135,10.0,37.0,74,0.01,,,-99.99,Weather View 32 v60,2013-04-17 17:16:00,
2013-04-17 13:21:00,48.0,39.4,29.91,SE,135,16.0,37.0,72,0.01,,,-99.99,Weather View 32 v60,2013-04-17 17:21:00,
2013-04-17 13:26:00,48.0,39.7,29.91,South,180,10.0,37.0,73,0.01,,,-99.99,Weather View 32 v60,2013-04-17 17:26:00,
2013-04-17 13:31:00,48.0,39.4,29.92,SE,135,15.0,37.0,72,0.01,,,-99.99,Weather View 32 v60,2013-04-17 17:31:00,
2013-04-17 13:37:00,48.0,39.7,29.92,SE,135,10.0,37.0,73,0.01,,,-99.99,Weather View 32 v60,2013-04-17 17:37:00,
2013-04-17 13:46:00,49.0,40.7,29.91,SE,135,10.0,37.0,73,0.00,,,-99.99,Weather View 32 v60,2013-04-17 17:46:00,
2013-04-17 13:51:00,49.0,40.4,29.91,SE,135,9.0,37.0,72,0.00,,,-99.99,Weather View 32 v60,2013-04-17 17:51:00,
2013-04-17 13:57:00,49.0,41.1,29.91,East,90,3.0,37.0,74,0.00,,,-99.99,Weather View 32 v60,2013-04-17 17:57:00,
2013-04-17 14:06:00,49.0,40.4,29.91,South,180,9.0,34.0,72,0.00,,,-99.99,Weather View 32 v60,2013-04-17 18:06:00,
2013-04-17 14:16:00,49.0,40.7,29.92,SE,135,10.0,34.0,73,0.00,,,-99.99,Weather View 32 v60,2013-04-17 18:16:00,
2013-04-17 14:21:00,49.0,41.1,29.92,SE,135,3.0,34.0,74,0.00,,,-99.99,Weather View 32 v60,2013-04-17 18:21:00,
2013-04-17 14:31:00,49.0,41.4,29.93,SSE,157,6.0,34.0,75,0.00,,,-99.99,Weather View 32 v60,2013-04-17 18:31:00,
2013-04-17 14:41:00,49.0,41.4,29.91,East,90,7.0,34.0,75,0.00,,,-99.99,Weather View 32 v60,2013-04-17 18:41:00,
2013-04-17 14:46:00,49.0,41.8,29.91,East,90,8.0,34.0,76,0.00,,,-99.99,Weather View 32 v60,2013-04-17 18:46:00,
2013-04-17 14:51:00,49.0,42.1,29.94,WNW,292,6.0,25.0,77,0.00,,,-99.99,Weather View 32 v60,2013-04-17 18:51:00,
2013-04-17 14:56:00,49.0,42.1,29.94,WNW,292,12.0,25.0,77,0.00,,,-99.99,Weather View 32 v60,2013-04-17 18:56:00,
2013-04-17 15:06:00,47.0,42.1,29.99,SE,135,17.0,23.0,83,0.02,,,-99.99,Weather View 32 v60,2013-04-17 19:06:00,
2013-04-17 15:11:00,46.0,40.8,29.89,East,90,17.0,21.0,82,0.04,,,-99.99,Weather View 32 v60,2013-04-17 19:11:00,
2013-04-17 15:16:00,46.0,40.5,29.89,East,90,11.0,26.0,81,0.06,,,-99.99,Weather View 32 v60,2013-04-17 19:16:00,
2013-04-17 15:21:00,45.0,38.9,29.85,ESE,112,13.0,26.0,79,0.07,,,-99.99,Weather View 32 v60,2013-04-17 19:21:00,
2013-04-17 15:31:00,45.0,38.9,29.86,SE,135,20.0,26.0,79,0.09,,,-99.99,Weather View 32 v60,2013-04-17 19:31:00,
2013-04-17 15:36:00,45.0,38.2,29.86,ESE,112,11.0,27.0,77,0.10,,,-99.99,Weather View 32 v60,2013-04-17 19:36:00,
2013-04-17 15:41:00,45.0,38.2,29.82,SE,135,17.0,27.0,77,0.10,,,-99.99,Weather View 32 v60,2013-04-17 19:41:00,
2013-04-17 15:46:00,45.0,37.9,29.82,SE,135,10.0,27.0,76,0.10,,,-99.99,Weather View 32 v60,2013-04-17 19:46:00,
2013-04-17 15:51:00,45.0,37.9,29.84,ESE,112,15.0,27.0,76,0.10,,,-99.99,Weather View 32 v60,2013-04-17 19:51:00,
2013-04-17 15:56:00,45.0,37.5,29.84,East,90,22.0,27.0,75,0.12,,,-99.99,Weather View 32 v60,2013-04-17 19:56:00,
2013-04-17 16:01:00,45.0,37.5,29.83,East,90,2.0,27.0,75,0.14,,,-99.99,Weather View 32 v60,2013-04-17 20:01:00,
2013-04-17 16:11:00,44.0,35.5,29.86,SE,135,7.0,27.0,72,0.15,,,-99.99,Weather View 32 v60,2013-04-17 20:11:00,
2013-04-17 16:16:00,44.0,35.2,29.86,SE,135,9.0,27.0,71,0.18,,,-99.99,Weather View 32 v60,2013-04-17 20:16:00,
2013-04-17 16:26:00,44.0,34.8,29.83,ESE,112,13.0,29.0,70,0.20,,,-99.99,Weather View 32 v60,2013-04-17 20:26:00,
2013-04-17 16:31:00,44.0,35.2,29.80,East,90,14.0,33.0,71,0.20,,,-99.99,Weather View 32 v60,2013-04-17 20:31:00,
2013-04-17 16:36:00,44.0,34.8,29.80,ENE,67,5.0,33.0,70,0.19,,,-99.99,Weather View 32 v60,2013-04-17 20:36:00,
2013-04-17 16:41:00,44.0,34.8,29.80,ESE,112,17.0,33.0,70,0.20,,,-99.99,Weather View 32 v60,2013-04-17 20:41:00,
2013-04-17 16:46:00,44.0,35.5,29.80,North,360,20.0,33.0,72,0.20,,,-99.99,Weather View 32 v60,2013-04-17 20:46:00,
2013-04-17 16:51:00,43.0,34.6,29.88,North,360,0.0,52.0,72,0.21,,,-99.99,Weather View 32 v60,2013-04-17 20:51:00,
2013-04-17 16:56:00,43.0,34.2,29.88,WNW,292,1.0,60.0,71,0.24,,,-99.99,Weather View 32 v60,2013-04-17 20:56:00,
2013-04-17 17:01:00,43.0,34.2,29.84,East,90,6.0,60.0,71,0.34,,,-99.99,Weather View 32 v60,2013-04-17 21:01:00,
2013-04-17 17:06:00,43.0,34.2,29.84,NNE,22,9.0,60.0,71,0.41,,,-99.99,Weather View 32 v60,2013-04-17 21:06:00,
2013-04-17 17:11:00,43.0,33.5,29.93,NNE,22,11.0,60.0,69,0.44,,,-99.99,Weather View 32 v60,2013-04-17 21:11:00,
2013-04-17 17:16:00,43.0,34.2,29.93,East,90,7.0,60.0,71,0.44,,,-99.99,Weather View 32 v60,2013-04-17 21:16:00,
2013-04-17 17:22:00,43.0,33.9,29.87,SSE,157,4.0,60.0,70,0.41,,,-99.99,Weather View 32 v60,2013-04-17 21:22:00,
2013-04-17 17:31:00,43.0,33.1,29.86,East,90,7.0,60.0,68,0.41,,,-99.99,Weather View 32 v60,2013-04-17 21:31:00,
2013-04-17 17:36:00,43.0,33.1,29.86,NE,45,7.0,60.0,68,0.41,,,-99.99,Weather View 32 v60,2013-04-17 21:36:00,
2013-04-17 17:46:00,43.0,33.5,29.87,ESE,112,8.0,60.0,69,0.41,,,-99.99,Weather View 32 v60,2013-04-17 21:46:00,
2013-04-17 17:51:00,43.0,33.1,29.87,NE,45,5.0,60.0,68,0.41,,,-99.99,Weather View 32 v60,2013-04-17 21:51:00,
2013-04-17 17:56:00,43.0,33.1,29.87,North,360,5.0,22.0,68,0.37,,,-99.99,Weather View 32 v60,2013-04-17 21:56:00,
2013-04-17 18:01:00,43.0,33.9,29.91,ESE,112,12.0,22.0,70,0.29,,,-99.99,Weather View 32 v60,2013-04-17 22:01:00,
2013-04-17 18:06:00,43.0,34.6,29.91,East,90,8.0,22.0,72,0.26,,,-99.99,Weather View 32 v60,2013-04-17 22:06:00,
2013-04-17 18:11:00,43.0,34.9,29.88,SE,135,8.0,22.0,73,0.23,,,-99.99,Weather View 32 v60,2013-04-17 22:11:00,
2013-04-17 18:16:00,43.0,34.9,29.88,SE,135,14.0,22.0,73,0.21,,,-99.99,Weather View 32 v60,2013-04-17 22:16:00,
2013-04-17 18:21:00,43.0,35.3,29.84,ESE,112,9.0,24.0,74,0.22,,,-99.99,Weather View 32 v60,2013-04-17 22:21:00,
2013-04-17 18:26:00,43.0,35.3,29.84,SE,135,14.0,24.0,74,0.24,,,-99.99,Weather View 32 v60,2013-04-17 22:26:00,
2013-04-17 18:31:00,43.0,34.6,29.83,ESE,112,17.0,24.0,72,0.25,,,-99.99,Weather View 32 v60,2013-04-17 22:31:00,
2013-04-17 18:41:00,43.0,34.2,29.83,ESE,112,10.0,25.0,71,0.28,,,-99.99,Weather View 32 v60,2013-04-17 22:41:00,
2013-04-17 18:46:00,43.0,34.6,29.83,SE,135,15.0,25.0,72,0.28,,,-99.99,Weather View 32 v60,2013-04-17 22:46:00,
2013-04-17 18:51:00,43.0,34.6,29.79,SE,135,17.0,33.0,72,0.29,,,-99.99,Weather View 32 v60,2013-04-17 22:51:00,
2013-04-17 19:00:00,43.0,34.2,29.79,SE,135,21.0,39.0,71,0.29,,,-99.99,Weather View 32 v60,2013-04-17 23:00:00,
2013-04-17 19:06:00,43.0,34.2,29.73,SE,135,37.0,49.0,71,0.22,,,-99.99,Weather View 32 v60,2013-04-17 23:06:00,
2013-04-17 19:16:00,43.0,33.5,29.70,SE,135,28.0,49.0,69,0.19,,,-99.99,Weather View 32 v60,2013-04-17 23:16:00,
2013-04-17 19:21:00,43.0,33.5,29.69,ESE,112,13.0,49.0,69,0.18,,,-99.99,Weather View 32 v60,2013-04-17 23:21:00,
2013-04-17 19:31:00,44.0,33.7,29.77,SE,135,5.0,49.0,67,0.15,,,-99.99,Weather View 32 v60,2013-04-17 23:31:00,
2013-04-17 19:36:00,44.0,34.1,29.77,SE,135,17.0,49.0,68,0.13,,,-99.99,Weather View 32 v60,2013-04-17 23:36:00,
2013-04-17 19:41:00,44.0,33.4,29.73,SE,135,23.0,49.0,66,0.13,,,-99.99,Weather View 32 v60,2013-04-17 23:41:00,
2013-04-17 19:46:00,44.0,33.0,29.73,South,180,3.0,49.0,65,0.12,,,-99.99,Weather View 32 v60,2013-04-17 23:46:00,
2013-04-17 19:56:00,44.0,32.6,29.79,ESE,112,15.0,49.0,64,0.10,,,-99.99,Weather View 32 v60,2013-04-17 23:56:00,
2013-04-17 20:01:00,45.0,33.5,29.77,East,90,7.0,49.0,64,0.09,,,-99.99,Weather View 32 v60,2013-04-18 00:01:00,
2013-04-17 20:06:00,45.0,33.5,29.77,East,90,18.0,48.0,64,0.06,,,-99.99,Weather View 32 v60,2013-04-18 00:06:00,
2013-04-17 20:11:00,45.0,33.5,29.77,SE,135,8.0,45.0,64,0.05,,,-99.99,Weather View 32 v60,2013-04-18 00:11:00,
2013-04-17 20:16:00,45.0,33.5,29.77,SE,135,6.0,45.0,64,0.04,,,-99.99,Weather View 32 v60,2013-04-18 00:16:00,
2013-04-17 20:21:00,45.0,33.5,29.77,SE,135,10.0,28.0,64,0.03,,,-99.99,Weather View 32 v60,2013-04-18 00:21:00,
2013-04-17 20:26:00,45.0,33.5,29.77,SE,135,16.0,29.0,64,0.02,,,-99.99,Weather View 32 v60,2013-04-18 00:26:00,
2013-04-17 20:31:00,45.0,33.5,29.75,SE,135,9.0,29.0,64,0.02,,,-99.99,Weather View 32 v60,2013-04-18 00:31:00,
2013-04-17 20:41:00,45.0,33.9,29.78,East,90,4.0,29.0,65,0.01,,,-99.99,Weather View 32 v60,2013-04-18 00:41:00,
2013-04-17 20:46:00,45.0,33.9,29.78,SE,135,8.0,29.0,65,0.01,,,-99.99,Weather View 32 v60,2013-04-18 00:46:00,
2013-04-17 20:56:00,45.0,33.5,29.79,ESE,112,11.0,29.0,64,0.01,,,-99.99,Weather View 32 v60,2013-04-18 00:56:00,
2013-04-17 21:02:00,45.0,33.9,29.76,East,90,10.0,29.0,65,0.01,,,-99.99,Weather View 32 v60,2013-04-18 01:02:00,
2013-04-17 21:11:00,45.0,33.9,29.74,SE,135,10.0,29.0,65,0.01,,,-99.99,Weather View 32 v60,2013-04-18 01:11:00,
2013-04-17 21:16:00,45.0,33.9,29.74,SE,135,14.0,29.0,65,0.02,,,-99.99,Weather View 32 v60,2013-04-18 01:16:00,
2013-04-17 21:21:00,45.0,33.9,29.69,South,180,19.0,30.0,65,0.02,,,-99.99,Weather View 32 v60,2013-04-18 01:21:00,
2013-04-17 21:26:00,45.0,33.9,29.69,SE,135,10.0,31.0,65,0.02,,,-99.99,Weather View 32 v60,2013-04-18 01:26:00,
2013-04-17 21:31:00,45.0,33.9,29.68,SE,135,11.0,31.0,65,0.02,,,-99.99,Weather View 32 v60,2013-04-18 01:31:00,
2013-04-17 21:36:00,45.0,33.9,29.68,SE,135,15.0,31.0,65,0.02,,,-99.99,Weather View 32 v60,2013-04-18 01:36:00,
2013-04-17 21:41:00,45.0,33.9,29.67,SSE,157,14.0,31.0,65,0.02,,,-99.99,Weather View 32 v60,2013-04-18 01:41:00,
2013-04-17 21:46:00,45.0,33.5,29.67,East,90,8.0,36.0,64,0.02,,,-99.99,Weather View 32 v60,2013-04-18 01:46:00,
2013-04-17 22:01:00,45.0,33.5,29.65,SE,135,11.0,36.0,64,0.01,,,-99.99,Weather View 32 v60,2013-04-18 02:01:00,
2013-04-17 22:11:00,45.0,33.5,29.67,East,90,24.0,39.0,64,0.01,,,-99.99,Weather View 32 v60,2013-04-18 02:11:00,
2013-04-17 22:16:00,45.0,33.5,29.67,SE,135,24.0,39.0,64,0.00,,,-99.99,Weather View 32 v60,2013-04-18 02:16:00,
2013-04-17 22:26:00,45.0,33.5,29.65,SE,135,11.0,39.0,64,0.00,,,-99.99,Weather View 32 v60,2013-04-18 02:26:00,
2013-04-17 22:31:00,45.0,33.5,29.66,SE,135,14.0,39.0,64,0.00,,,-99.99,Weather View 32 v60,2013-04-18 02:31:00,
2013-04-17 22:36:00,45.0,33.5,29.66,SE,135,11.0,39.0,64,0.00,,,-99.99,Weather View 32 v60,2013-04-18 02:36:00,
2013-04-17 22:41:00,46.0,34.5,29.66,SE,135,17.0,39.0,64,0.00,,,-99.99,Weather View 32 v60,2013-04-18 02:41:00,
2013-04-17 22:46:00,46.0,34.5,29.66,SE,135,14.0,39.0,64,0.00,,,-99.99,Weather View 32 v60,2013-04-18 02:46:00,
2013-04-17 22:51:00,46.0,34.5,29.65,ESE,112,22.0,39.0,64,0.00,,,-99.99,Weather View 32 v60,2013-04-18 02:51:00,
2013-04-17 23:01:00,46.0,34.9,29.67,East,90,16.0,39.0,65,0.00,,,-99.99,Weather View 32 v60,2013-04-18 03:01:00,
2013-04-17 23:11:00,46.0,34.9,29.69,East,90,9.0,38.0,65,0.00,,,-99.99,Weather View 32 v60,2013-04-18 03:11:00,
2013-04-17 23:16:00,46.0,34.9,29.69,North,360,6.0,38.0,65,0.00,,,-99.99,Weather View 32 v60,2013-04-18 03:16:00,
2013-04-17 23:21:00,46.0,34.9,29.71,SE,135,8.0,38.0,65,0.00,,,-99.99,Weather View 32 v60,2013-04-18 03:21:00,
2013-04-17 23:26:00,46.0,34.5,29.71,ESE,112,8.0,38.0,64,0.00,,,-99.99,Weather View 32 v60,2013-04-18 03:26:00,
2013-04-17 23:31:00,46.0,34.5,29.70,ESE,112,8.0,31.0,64,0.00,,,-99.99,Weather View 32 v60,2013-04-18 03:31:00,
2013-04-17 23:36:00,46.0,34.5,29.70,South,180,0.0,31.0,64,0.00,,,-99.99,Weather View 32 v60,2013-04-18 03:36:00,
2013-04-17 23:46:00,46.0,34.5,29.70,SE,135,7.0,31.0,64,0.01,,,-99.99,Weather View 32 v60,2013-04-18 03:46:00,
2013-04-17 23:56:00,46.0,34.9,29.71,SE,135,10.0,25.0,65,0.02,,,-99.99,Weather View 32 v60,2013-04-18 03:56:00,